Thompson, UT

11:03 PM MST on February 24, 2017 (GMT -0700)
Canyonlands

Weather History for KCNY - November, 2011

Change the Weather History Date:

Sunday, November 13, 2011

  Actual Average Record
Temperature  
Mean Temperature 40 °F 40 °F  
Max Temperature 50 °F 52 °F 75 °F (1989)
Min Temperature 30 °F 28 °F 16 °F (2012)
Degree Days  
Heating Degree Days 25 25  
Month to date heating degree days 289  
Since 1 July heating degree days 708  
Cooling Degree Days 0 0  
Month to date cooling degree days 0  
Year to date cooling degree days 1289  
Moisture  
Dew Point 33 °F    
Average Humidity 74    
Maximum Humidity 85    
Minimum Humidity 61    
Precipitation  
Precipitation 0.04 in 0.02 in 0.80 in (1941)
Month to date precipitation 0.30  
Year to date precipitation 7.81  
Sea Level Pressure  
Sea Level Pressure 29.79 in    
Wind  
Wind Speed 4 mph (SSW)    
Max Wind Speed 16 mph    
Max Gust Speed -    
Visibility 10 miles    
Events Rain    
T = Trace of Precipitation, MM = Missing Value Source: NWS Daily Summary

Daily Weather History Graph

Daily Weather History Graph

Search for Another Location

Airport or City:

Trip Planner

Search our weather history database for the weather conditions in past years. The results will help you decide how hot, cold, wet, or windy it might be!

Date:

Astronomy

Nov. 13, 2011 Rise Set
Actual Time 6:58 AM MST 5:07 PM MST
Civil Twilight 6:30 AM MST 5:35 PM MST
Nautical Twilight 5:58 AM MST 6:07 PM MST
Astronomical Twilight 5:27 AM MST 6:38 PM MST
Moon 7:20 PM MST (11/13) 9:33 AM MST (11/13)
Length of Visible Light 11h 04m
Length of Day
10h 08m
Waning Gibbous, 92% of the Moon is Illuminated
Nov 13
Waning Gibbous
Nov 18
Last Quarter
Nov 24
New
Dec 2
First Quarter
Dec 10
Full

Hourly Weather History & Observations

Time (MST) Temp. Windchill Dew Point Humidity Pressure Visibility Wind Dir Wind Speed Gust Speed Precip Events Conditions
12:53 AM 35.1 °F - 26.1 °F 70% 29.80 in 10.0 mi Calm Calm - N/A   Clear
1:53 AM 36.0 °F - 26.1 °F 67% 29.78 in 10.0 mi Calm Calm - N/A   Clear
2:53 AM 33.1 °F - 26.1 °F 75% 29.77 in 10.0 mi Calm Calm - N/A   Clear
3:53 AM 33.1 °F - 27.0 °F 78% 29.76 in 10.0 mi Calm Calm - N/A   Clear
4:53 AM 30.9 °F - 26.1 °F 82% 29.76 in 10.0 mi Calm Calm - N/A   Clear
5:53 AM 30.0 °F - 26.1 °F 85% 29.75 in 10.0 mi Calm Calm - N/A   Mostly Cloudy
6:53 AM 34.0 °F - 28.0 °F 79% 29.75 in 10.0 mi Calm Calm - N/A   Clear
7:53 AM 39.2 °F - 30.2 °F 70% 29.77 in 10.0 mi Calm Calm - N/A   Mostly Cloudy
8:53 AM 41.0 °F 38.0 °F 32.0 °F 70% 29.78 in 10.0 mi East 4.6 mph - 0.00 in Rain Light Rain
9:53 AM 44.1 °F 37.1 °F 37.0 °F 76% 29.81 in 9.0 mi SW 15.0 mph - 0.03 in Rain Light Rain
10:53 AM 44.1 °F 40.1 °F 39.0 °F 82% 29.81 in 10.0 mi SSW 6.9 mph - 0.01 in Rain Light Rain
11:53 AM 46.0 °F 42.5 °F 39.0 °F 76% 29.78 in 10.0 mi South 6.9 mph - 0.00 in   Mostly Cloudy
12:53 PM 48.0 °F - 39.0 °F 71% 29.76 in 10.0 mi SSW 13.8 mph - N/A   Overcast
1:53 PM 48.9 °F - 39.0 °F 69% 29.73 in 10.0 mi SSW 13.8 mph - N/A   Clear
2:53 PM 50.0 °F - 37.9 °F 63% 29.73 in 10.0 mi SSW 16.1 mph - N/A   Clear
3:53 PM 50.0 °F - 37.0 °F 61% 29.73 in 10.0 mi SW 15.0 mph - N/A   Clear
4:53 PM 48.9 °F - 37.0 °F 64% 29.76 in 10.0 mi SSW 12.7 mph - N/A   Scattered Clouds
5:53 PM 46.0 °F 40.6 °F 37.0 °F 71% 29.80 in 10.0 mi SSW 11.5 mph - N/A   Mostly Cloudy
6:53 PM 45.0 °F 42.6 °F 36.0 °F 71% 29.82 in 10.0 mi SW 4.6 mph - N/A   Partly Cloudy
7:53 PM 44.1 °F 39.5 °F 34.0 °F 68% 29.83 in 10.0 mi West 8.1 mph - N/A   Clear
8:53 PM 41.0 °F 38.0 °F 33.1 °F 73% 29.85 in 10.0 mi South 4.6 mph - N/A   Clear
9:53 PM 41.0 °F 39.0 °F 34.0 °F 76% 29.86 in 10.0 mi South 3.5 mph - N/A   Clear
10:53 PM 37.0 °F - 32.0 °F 82% 29.87 in 10.0 mi Calm Calm - N/A   Clear
11:53 PM 35.1 °F 32.2 °F 30.9 °F 85% 29.87 in 10.0 mi WSW 3.5 mph - N/A   Clear